Location: Oberkirch
(48.5323°N, 8.0787°E)
Time: 18:16:52
(UTC+00:00)

ACS3 Solar Sail - Pass Details

Date: 08 November 2025
Orbit: 888 x 1002 km, 97.3° (Epoch: 10 December)

Event Time Altitude Azimuth Distance (km) Brightness Sun altitude
Rises 03:27:23 0° 9° (N) 3,524 4.9 -29.5°
Reaches altitude 10° 03:29:47 10° 7° (N) 2,590 4.2 -29.1°
Enters shadow 03:33:37 42° 348° (NNW) 1,285 2.3 -28.5°
